Starlink 32747

operational
NORAD ID: 62600 Int'l Des: 2025-008 Owner: SPXS Country: US Constellation: starlink
LEOCIRCULAR

Über Starlink 32747

Beschreibung wird geladen...

Live-Position

3D-Globus wird geladen...

Nächste Überflüge

Höhenverlauf

Altitude vs Time

uPlot chart will show altitude changes over time

Zweizeiliger Elementsatz

1 62600U 25008P 25305.22525599 .00028042 00000-0 10250-2 0 9999
2 62600 43.0003 283.7551 0001161 277.3370 82.7349 15.27568838 45910
Epoch: 1. Nov. 2025 • Age: 32 hours

Aktueller Status

Höhe 485.5 km
Geschwindigkeit 7.63 km/s
Subsatellitenpunkt 37.06°N, 160.94°E
Startdatum 13. Jan. 2025
Alter 0.7 years
Typ internet

Technische Details

Klassifizierung Payload
Masse 730.00 kg
Trockenmasse 700.00 kg
Gesamtmasse 730.00 kg
Länge 0.30 m
Durchmesser 4.10 m
Spannweite 29.00 m
Form Box + pan
Hersteller SPXS
Bus-Typ Starlink V2M
Phasenstatus In Orbit
Besitzer/Staat SPXS/US

Große Konstellationen

Loading constellations...